Regional Weather Roundup
Issued by NWS

Home | Current Version | Previous Version | Graphics & Text | Print | Product List | Glossary On
Versions: 1 2 3 4 5 6 7 8 9 10 11 12 13 14 15 16 17 18 19 20 21 22 23 24 25 26 27 28
000
ASUS45 KBOU 301907
RWRCO

WEATHER ROUNDUP FOR COLORADO
NATIONAL WEATHER SERVICE DENVER/BOULDER CO
100 PM MDT MON MAY 30 2016

NOTE: "FAIR" INDICATES FEW OR NO CLOUDS BELOW 12000 FEET WITH NO
SIGNIFICANT WEATHER AND/OR OBSTRUCTIONS TO VISIBILITY.

COZ001>005-013-030-031-302000-
...NORTHWEST COLORADO...

CITY           SKY/WX    TMP DP  RH WIND       PRES   REMARKS
CRAIG          FAIR      67  39  35 CALM      30.13F
HAYDEN         FAIR      63  36  36 NW10      30.14F
MEEKER         FAIR      69  41  36 VRB7      30.12F
MOUNT WERNER   NOT AVBL
STEAMBOAT SPGS FAIR      64  39  39 W14       30.14F
WALDEN         NOT AVBL
$$

COZ006>008-011-302000-
...WEST CENTRAL VALLEYS...

CITY           SKY/WX    TMP DP  RH WIND       PRES   REMARKS
GRAND JUNCTION FAIR      77  39  25 VRB5      30.02F
MONTROSE       FAIR      76  31  19 N10       30.06F
EAGLE          MOSUNNY   72  28  20 SW16      30.09F
RIFLE          FAIR      76  38  25 MISG      30.04F
DELTA          FAIR      78  33  19 S7        30.02F
NUCLA          FAIR      75  27  16 W6        30.11F
$$

COZ017>023-064>068-302000-
...SOUTHWEST COLORADO...

CITY           SKY/WX    TMP DP  RH WIND       PRES   REMARKS
DURANGO        FAIR      72  17  12 VRB6      30.13F
CORTEZ         FAIR      78  18  10 S10G20    30.09F
PAGOSA SPRINGS FAIR      69   6   8 CALM      30.19F
TELLURIDE      PTSUNNY   62  19  18 W8        30.27S
WOLF CREEK PAS FAIR      46  18  31 S14G31    30.45F
$$

COZ009-010-012-014-032>034-037-058>063-302000-
...CENTRAL COLORADO...

CITY           SKY/WX    TMP DP  RH WIND       PRES   REMARKS
ASPEN          FAIR      67  23  19 N15G26    30.15S
BUENA VISTA    PTSUNNY   66  21  18 SE23G30   30.14F
COPPER MTN     NOT AVBL
BERTHOUD PASS  FAIR      41  32  70 W15G26    30.40F THUNDER
COTTONWOOD PAS PTSUNNY   61   3  10 NW6G17    30.26S
GUNNISON       FAIR      64  27  24 W13G22    30.19S
KREMMLING      PTSUNNY   61  32  33 NW12G17   30.15R THUNDER
LEADVILLE      CLOUDY    55  14  19 W16G22    30.27F
SALIDA         FAIR      65  22  19 S18G28    30.22S
SUNLIGHT       FAIR      52  32  46 CALM      30.36F
WILKERSON PASS PTSUNNY   54  18  24 W9        30.37F
$$

COZ069>075-302000-
...SAN LUIS VALLEY/SANGRE DE CRISTO MOUNTAINS...

CITY           SKY/WX    TMP DP  RH WIND       PRES   REMARKS
ALAMOSA        FAIR      70  27  20 VRB6      30.14F
LA VETA PASS   FAIR      63  21  20 SW6       30.32F
SAGUACHE       FAIR      64  30  27 SE5       30.18F
$$

COZ035-036-038>040-302000-
...NORTHERN COLORADO FRONT RANGE...

CITY           SKY/WX    TMP DP  RH WIND       PRES   REMARKS
DENVER INTL AP FAIR      73  49  42 E8        29.97F
DMNS CITY PARK   N/A     76  33  20 SE5G13    29.97S
AURORA         PTSUNNY   71  36  27 S10       30.00F
FRONT RANGE AP PTSUNNY   73  46  38 E5        29.99F
ERIE MUNI ARPT FAIR      79  41  25 E5        29.95F
BOULDER MUN AP FAIR      77  43  29 E5        29.96F
CENTENNIAL     TSTM      66  33  29 N13G63    30.01S
BROOMFIELD     NOT AVBL
FORT COLLINS   FAIR      72  39  30 N12       29.97S
LONGMONT       FAIR      81  37  20 SE9       29.96F
$$

COZ041-046-047-076>085-087-088-302000-
...PIKES PEAK/PALMER DIVIDE AND SOUTHERN FOOTHILLS...

CITY           SKY/WX    TMP DP  RH WIND       PRES   REMARKS
COLO. SPRINGS  TSTM      70  41  34 NW15G22   30.06R
A. F. ACADEMY  PTSUNNY   72  41  33 SW9       30.06S
SCHRIEVER AFB  NOT AVBL
ELLICOTT       NOT AVBL
FALCON         PTSUNNY   66  22  18 SW24G48   30.13R
FORT CARSON    PTSUNNY   79  32  18 N15G24    30.00F
LIMON          FAIR      73  48  41 SE8       30.01F
MONUMENT HILL  FAIR      68  28  22 S8        30.09F
TRINIDAD       PTSUNNY   74  39  28 W8        30.05S
$$

COZ042>045-048>051-090-091-302000-
...NORTHEAST COLORADO...

CITY           SKY/WX    TMP DP  RH WIND       PRES   REMARKS
GREELEY ARPT   FAIR      77  50  38 CALM      29.96S
AKRON          FAIR      76  50  40 E8        29.96F
BURLINGTON     FAIR      79  49  34 S12       29.96F
WRAY           FAIR      81  48  32 SE9       29.93F
STERLING       FAIR      77  52  41 S8        29.92F
HOLYOKE        FAIR      81  50  34 S9        29.93F
FORT MORGAN    FAIR      77  44  30 SE7       29.95F
$$

COZ086-089-092>099-302000-
...SOUTHEAST COLORADO...

CITY           SKY/WX    TMP DP  RH WIND       PRES   REMARKS
PUEBLO         FAIR      79  45  29 SE7       29.96F
LA JUNTA       FAIR      78  50  37 SW3       29.95F
LAMAR          FAIR      84  50  30 VRB5      29.91F
SPRINGFIELD      N/A     76  53  44 S17G23    29.99F
$$




USA.gov is the U.S. government's official web portal to all federal, state and local government web resources and services.